Regional Weather Roundup
Issued by NWS

Home | Current Version | Previous Version | Graphics & Text | Print | Product List | Glossary On
Versions: 1 2 3 4 5 6 7 8 9 10 11 12 13 14 15 16 17 18 19 20 21 22 23 24 25 26 27 28 29 30 31 32 33 34 35 36 37 38 39 40 41 42 43 44 45 46 47 48 49 50
000
ASUS43 KLMK 261202
RWRKY
KENTUCKY REGIONAL WEATHER ROUNDUP
NATIONAL WEATHER SERVICE LOUISVILLE KY
700 AM EST FRI DEC 26 2014

NOTE "FAIR" INDICATES FEW OR NO CLOUDS BELOW 12,000 FEET
WITH NO SIGNIFICANT WEATHER AND/OR OBSTRUCTIONS TO VISIBILITY.

KYZ001>023-026-027-061>063-070>075-261300-
WESTERN AND SOUTH CENTRAL KENTUCKY

CITY           SKY/WX    TMP DP  RH WIND       PRES   REMARKS
PADUCAH        CLEAR     40  34  79 S8        30.19R WCI  34
HENDERSON      CLEAR     36  30  80 S6        30.19S WCI  31
OWENSBORO      CLEAR     34  32  92 S7        30.22S WCI  28
HOPKINSVILLE   MOCLDY    33  31  94 SE6       30.24R WCI  27
BOWLING GREEN  CLEAR     28  25  88 CALM      30.27R
GLASGOW        NOT AVBL
$$

KYZ024-025-028>034-038-045-046-053-261300-
NORTH CENTRAL KENTUCKY

CITY           SKY/WX    TMP DP  RH WIND       PRES   REMARKS
LOUISVILLE/SDF MOCLDY    33  30  88 SE7       30.24R WCI  27
LOUISVILLE/LOU CLEAR     35  31  85 S5        30.25R WCI  31
FORT KNOX      CLEAR     31  29  93 S6        30.22S WCI  25
$$

KYZ035>037-039>044-047>052-055>060-089>105-261300-
NORTHEAST KENTUCKY

CITY           SKY/WX    TMP DP  RH WIND       PRES   REMARKS
LEXINGTON      PTCLDY    32  29  88 S10       30.26R WCI  24
COVINGTON      PTCLDY    32  26  78 S5        30.21S WCI  27
FRANKFORT      CLEAR     30  27  88 S5        30.25R WCI  25
$$

KYZ054-064>069-076>088-106>120-261300-
SOUTHEAST KENTUCKY

CITY           SKY/WX    TMP DP  RH WIND       PRES   REMARKS
JACKSON        PTCLDY    31  27  85 W3        30.27R
LONDON         CLEAR     27  21  78 CALM      30.28R
SOMERSET       NOT AVBL
MIDDLESBORO    NOT AVBL
MONTICELLO     MOSUNNY   23  22  96 CALM      30.31R
$$



USA.gov is the U.S. government's official web portal to all federal, state and local government web resources and services.